THY635 DRRN-FTTJ

Flight info

Callsign THY635
Flight time 1h 56m
Altitude 39000
Route POLKI1W POLKI DCT DOGON UG854 SIGAL SIGAL1L
Aircraft B38M/M-SDE1FGHILORVWXY/HB1

Departure

Time 2026-05-01 07:51
Airport Diori Hamani International Airport (DRRN)

Arrival

Time 2026-05-01 09:47
Airport N'Djamena International Airport (FTTJ)
Time Latitude Longitude Altitude Speed Heading
2026-05-01 07:23 13.47803 2.17925 742 ft 0 kts 143°
2026-05-01 07:35 13.47804 2.17925 740 ft 2 kts 143°
2026-05-01 07:36 13.47826 2.17911 739 ft 4 kts 150°
2026-05-01 07:36 13.47844 2.17898 741 ft 4 kts 141°
2026-05-01 07:36 13.47861 2.17879 743 ft 4 kts 112°
2026-05-01 07:36 13.47865 2.17859 741 ft 0 kts 84°
2026-05-01 07:40 13.47864 2.17859 743 ft 0 kts 84°
2026-05-01 07:41 13.47868 2.17899 742 ft 6 kts 84°
2026-05-01 07:42 13.47874 2.17952 741 ft 9 kts 84°
2026-05-01 07:42 13.47880 2.18027 741 ft 12 kts 84°
2026-05-01 07:42 13.47888 2.18123 740 ft 15 kts 84°
2026-05-01 07:42 13.47890 2.18238 740 ft 17 kts 92°
2026-05-01 07:43 13.47885 2.18360 738 ft 15 kts 92°
2026-05-01 07:43 13.47906 2.18465 736 ft 16 kts 60°
2026-05-01 07:43 13.48042 2.18589 737 ft 14 kts 85°
2026-05-01 07:44 13.48061 2.18835 734 ft 20 kts 86°
2026-05-01 07:44 13.48074 2.19151 731 ft 24 kts 87°
2026-05-01 07:45 13.48087 2.19326 733 ft 23 kts 86°
2026-05-01 07:45 13.48091 2.19445 729 ft 16 kts 86°
2026-05-01 07:45 13.48100 2.19566 728 ft 18 kts 86°
2026-05-01 07:45 13.48129 2.19683 727 ft 14 kts 40°
2026-05-01 07:46 13.48231 2.19706 726 ft 16 kts 12°
2026-05-01 07:46 13.48294 2.19795 727 ft 17 kts 85°
2026-05-01 07:46 13.48300 2.19882 727 ft 5 kts 86°
2026-05-01 07:47 13.48303 2.19932 726 ft 9 kts 86°
2026-05-01 07:47 13.48309 2.20011 724 ft 14 kts 86°
2026-05-01 07:47 13.48313 2.20124 721 ft 18 kts 89°
2026-05-01 07:47 13.48293 2.20266 719 ft 19 kts 107°
2026-05-01 07:48 13.48327 2.20377 716 ft 6 kts 283°
2026-05-01 07:48 13.48322 2.20355 715 ft 3 kts 252°
2026-05-01 07:48 13.48320 2.20347 715 ft 0 kts 256°
2026-05-01 07:49 13.48320 2.20345 715 ft 2 kts 257°
2026-05-01 07:49 13.48313 2.20292 717 ft 21 kts 265°
2026-05-01 07:50 13.48293 2.19931 727 ft 78 kts 268°
2026-05-01 07:50 13.48215 2.18169 742 ft 162 kts 267°
2026-05-01 07:50 13.48148 2.16947 923 ft 180 kts 266°
2026-05-01 07:51 13.48038 2.15638 1410 ft 176 kts 254°
2026-05-01 07:51 13.47851 2.14438 2092 ft 171 kts 265°
2026-05-01 07:51 13.47821 2.13141 2552 ft 192 kts 267°
2026-05-01 07:52 13.47231 2.10207 3368 ft 235 kts 231°
2026-05-01 07:52 13.45895 2.09157 3800 ft 254 kts 203°
2026-05-01 07:52 13.44106 2.08877 4308 ft 269 kts 174°
2026-05-01 07:53 13.40828 2.10653 5692 ft 275 kts 124°
2026-05-01 07:53 13.39997 2.12389 6500 ft 269 kts 101°
2026-05-01 07:53 13.39958 2.14285 7271 ft 268 kts 76°
2026-05-01 07:53 13.40682 2.16038 8049 ft 269 kts 59°
2026-05-01 07:54 13.42527 2.19424 9624 ft 273 kts 61°
2026-05-01 07:55 13.45393 2.24913 10952 ft 318 kts 61°
2026-05-01 07:55 13.47540 2.29031 12180 ft 331 kts 61°
2026-05-01 07:56 13.49164 2.36028 14261 ft 350 kts 84°
2026-05-01 07:56 13.49470 2.41075 15611 ft 358 kts 86°
2026-05-01 07:57 13.49614 2.43647 16264 ft 363 kts 86°
2026-05-01 07:57 13.49901 2.48881 17519 ft 371 kts 87°
2026-05-01 07:58 13.50194 2.54232 18644 ft 379 kts 88°
2026-05-01 07:58 13.50490 2.59675 19702 ft 385 kts 88°
2026-05-01 07:59 13.50791 2.65205 20746 ft 390 kts 88°
2026-05-01 07:59 13.51095 2.70821 21744 ft 397 kts 88°
2026-05-01 08:00 13.51712 2.82316 23675 ft 409 kts 88°
2026-05-01 08:01 13.52183 2.91125 24833 ft 418 kts 88°
2026-05-01 08:01 13.52341 2.94112 25222 ft 421 kts 88°
2026-05-01 08:01 13.52502 2.97137 25610 ft 424 kts 88°
2026-05-01 08:02 13.52825 3.03229 26370 ft 430 kts 87°
2026-05-01 08:02 13.52987 3.06306 26738 ft 433 kts 87°
2026-05-01 08:03 13.53313 3.12531 27451 ft 439 kts 87°
2026-05-01 08:03 13.53477 3.15681 27776 ft 443 kts 87°
2026-05-01 08:03 13.53809 3.22047 28458 ft 449 kts 87°
2026-05-01 08:04 13.54142 3.28498 29108 ft 455 kts 86°
2026-05-01 08:04 13.54478 3.35032 29725 ft 461 kts 86°
2026-05-01 08:05 13.54817 3.41649 30307 ft 466 kts 86°
2026-05-01 08:05 13.54988 3.44984 30592 ft 468 kts 86°
2026-05-01 08:05 13.55158 3.48329 30886 ft 470 kts 86°
2026-05-01 08:06 13.55501 3.55065 31439 ft 474 kts 86°
2026-05-01 08:06 13.55842 3.61863 31983 ft 477 kts 86°
2026-05-01 08:07 13.56182 3.68672 32733 ft 476 kts 86°
2026-05-01 08:07 13.56519 3.75453 33501 ft 474 kts 86°
2026-05-01 08:08 13.56686 3.78831 33910 ft 473 kts 86°
2026-05-01 08:08 13.57018 3.85565 34615 ft 470 kts 87°
2026-05-01 08:09 13.57345 3.92222 35242 ft 469 kts 87°
2026-05-01 08:09 13.57509 3.95568 35546 ft 469 kts 88°
2026-05-01 08:09 13.57672 3.98916 35849 ft 468 kts 87°
2026-05-01 08:10 13.57996 4.05593 36432 ft 468 kts 87°
2026-05-01 08:10 13.58317 4.12258 37027 ft 466 kts 88°
2026-05-01 08:11 13.58636 4.18904 37603 ft 465 kts 88°
2026-05-01 08:11 13.58951 4.25533 38093 ft 464 kts 88°
2026-05-01 08:12 13.59265 4.32159 38556 ft 464 kts 88°
2026-05-01 08:12 13.59369 4.34351 38684 ft 464 kts 88°
2026-05-01 08:12 13.59677 4.40970 38922 ft 464 kts 88°
2026-05-01 08:13 13.59830 4.44274 38911 ft 462 kts 88°
2026-05-01 08:13 13.60286 4.54148 38913 ft 461 kts 88°
2026-05-01 08:14 13.60587 4.60733 38923 ft 462 kts 88°
2026-05-01 08:14 13.60887 4.67324 38919 ft 462 kts 88°
2026-05-01 08:15 13.61309 4.77219 38925 ft 462 kts 88°
2026-05-01 08:16 13.61581 4.83808 38918 ft 462 kts 88°
2026-05-01 08:16 13.61852 4.90400 38923 ft 462 kts 88°
2026-05-01 08:17 13.62121 4.96991 38921 ft 461 kts 89°
2026-05-01 08:17 13.62387 5.03563 38920 ft 459 kts 89°
2026-05-01 08:18 13.62652 5.10126 38917 ft 460 kts 89°
2026-05-01 08:19 13.63174 5.23212 38921 ft 460 kts 89°
2026-05-01 08:19 13.63434 5.29777 38923 ft 460 kts 89°
2026-05-01 08:20 13.63691 5.36337 38927 ft 459 kts 89°
2026-05-01 08:20 13.63946 5.42879 38925 ft 458 kts 89°
2026-05-01 08:21 13.64199 5.49416 38930 ft 458 kts 89°
2026-05-01 08:21 13.64451 5.55959 38931 ft 458 kts 89°
2026-05-01 08:22 13.64701 5.62497 38929 ft 458 kts 89°
2026-05-01 08:22 13.64949 5.69039 38937 ft 458 kts 89°
2026-05-01 08:23 13.65193 5.75527 38934 ft 456 kts 89°
2026-05-01 08:23 13.65436 5.82026 38938 ft 455 kts 89°
2026-05-01 08:24 13.65678 5.88527 38941 ft 455 kts 89°
2026-05-01 08:24 13.65918 5.95024 38943 ft 455 kts 89°
2026-05-01 08:25 13.66156 6.01528 38941 ft 455 kts 89°
2026-05-01 08:25 13.66392 6.08029 38941 ft 455 kts 89°
2026-05-01 08:26 13.66628 6.14525 38943 ft 454 kts 89°
2026-05-01 08:26 13.66861 6.21013 38944 ft 454 kts 89°
2026-05-01 08:27 13.67142 6.27504 38943 ft 454 kts 88°
2026-05-01 08:27 13.67453 6.33990 38944 ft 454 kts 89°
2026-05-01 08:28 13.67760 6.40481 38947 ft 454 kts 89°
2026-05-01 08:28 13.68063 6.46925 38947 ft 454 kts 89°
2026-05-01 08:29 13.68366 6.53393 38940 ft 452 kts 89°
2026-05-01 08:29 13.68666 6.59843 38950 ft 452 kts 89°
2026-05-01 08:30 13.68965 6.66298 38949 ft 452 kts 89°
2026-05-01 08:30 13.69262 6.72749 38955 ft 452 kts 89°
2026-05-01 08:31 13.69558 6.79200 38952 ft 452 kts 89°
2026-05-01 08:31 13.69851 6.85653 38967 ft 452 kts 89°
2026-05-01 08:32 13.70144 6.92086 38966 ft 450 kts 89°
2026-05-01 08:32 13.70432 6.98509 38973 ft 450 kts 89°
2026-05-01 08:33 13.70719 7.04932 38976 ft 450 kts 89°
2026-05-01 08:33 13.71004 7.11354 38977 ft 450 kts 89°
2026-05-01 08:34 13.71236 7.17779 38977 ft 450 kts 89°
2026-05-01 08:34 13.71469 7.24206 38976 ft 449 kts 89°
2026-05-01 08:35 13.71700 7.30626 38970 ft 449 kts 89°
2026-05-01 08:35 13.71930 7.37049 38964 ft 450 kts 89°
2026-05-01 08:36 13.72140 7.42955 38957 ft 450 kts 89°
2026-05-01 08:36 13.72367 7.49388 38959 ft 453 kts 89°
2026-05-01 08:37 13.72596 7.55914 38961 ft 460 kts 89°
2026-05-01 08:37 13.72826 7.62498 38962 ft 460 kts 89°
2026-05-01 08:38 13.73051 7.69019 38954 ft 450 kts 89°
2026-05-01 08:38 13.73270 7.75418 38957 ft 447 kts 89°
2026-05-01 08:39 13.73488 7.81822 38957 ft 449 kts 90°
2026-05-01 08:39 13.73705 7.88260 38960 ft 451 kts 90°
2026-05-01 08:40 13.74028 7.97920 38955 ft 451 kts 90°
2026-05-01 08:40 13.74241 8.04358 38958 ft 450 kts 90°
2026-05-01 08:41 13.74452 8.10796 38957 ft 450 kts 90°
2026-05-01 08:41 13.74662 8.17233 38957 ft 450 kts 90°
2026-05-01 08:42 13.74870 8.23673 38956 ft 450 kts 90°
2026-05-01 08:42 13.75078 8.30114 38957 ft 450 kts 90°
2026-05-01 08:43 13.75276 8.36548 38955 ft 450 kts 90°
2026-05-01 08:43 13.75472 8.42977 38954 ft 449 kts 90°
2026-05-01 08:44 13.75666 8.49402 38956 ft 450 kts 90°
2026-05-01 08:44 13.75857 8.55788 38953 ft 450 kts 90°
2026-05-01 08:45 13.76049 8.62257 38954 ft 450 kts 90°
2026-05-01 08:45 13.76239 8.68687 38963 ft 450 kts 90°
2026-05-01 08:46 13.76427 8.75113 38976 ft 449 kts 90°
2026-05-01 08:46 13.76612 8.81523 38981 ft 448 kts 90°
2026-05-01 08:47 13.76795 8.87889 38989 ft 448 kts 90°
2026-05-01 08:47 13.76977 8.94304 38992 ft 448 kts 90°
2026-05-01 08:48 13.76860 8.97493 38968 ft 445 kts 102°
2026-05-01 08:48 13.76140 9.00567 39021 ft 443 kts 105°
2026-05-01 08:48 13.74628 9.06735 38984 ft 444 kts 106°
2026-05-01 08:49 13.73064 9.12885 38986 ft 445 kts 106°
2026-05-01 08:49 13.71491 9.19035 38976 ft 445 kts 106°
2026-05-01 08:50 13.69914 9.25187 38969 ft 445 kts 106°
2026-05-01 08:50 13.68337 9.31337 38960 ft 445 kts 106°
2026-05-01 08:51 13.66760 9.37481 38953 ft 444 kts 105°
2026-05-01 08:51 13.65180 9.43624 38952 ft 444 kts 105°
2026-05-01 08:52 13.63600 9.49768 38953 ft 445 kts 105°
2026-05-01 08:52 13.62017 9.55914 38953 ft 445 kts 105°
2026-05-01 08:53 13.60441 9.62024 38952 ft 445 kts 105°
2026-05-01 08:53 13.58853 9.68176 38955 ft 445 kts 105°
2026-05-01 08:54 13.57264 9.74325 38954 ft 445 kts 105°
2026-05-01 08:54 13.55673 9.80476 38956 ft 445 kts 105°
2026-05-01 08:55 13.54082 9.86621 38954 ft 445 kts 105°
2026-05-01 08:55 13.52488 9.92767 38957 ft 445 kts 105°
2026-05-01 08:56 13.50895 9.98907 38953 ft 445 kts 105°
2026-05-01 08:56 13.49300 10.05049 38952 ft 445 kts 105°
2026-05-01 08:57 13.47737 10.11198 38952 ft 445 kts 104°
2026-05-01 08:57 13.46240 10.17364 38953 ft 445 kts 104°
2026-05-01 08:58 13.44735 10.23526 38952 ft 445 kts 104°
2026-05-01 08:58 13.43228 10.29687 38953 ft 445 kts 104°
2026-05-01 08:59 13.41721 10.35845 38958 ft 444 kts 104°
2026-05-01 08:59 13.40212 10.42006 38959 ft 445 kts 104°
2026-05-01 09:00 13.38703 10.48158 38959 ft 444 kts 104°
2026-05-01 09:00 13.37192 10.54311 38959 ft 444 kts 104°
2026-05-01 09:01 13.35688 10.60427 38954 ft 445 kts 104°
2026-05-01 09:01 13.34084 10.66567 38952 ft 445 kts 105°
2026-05-01 09:02 13.32448 10.72704 38954 ft 445 kts 105°
2026-05-01 09:02 13.31081 10.77842 38952 ft 445 kts 105°
2026-05-01 09:03 13.29447 10.83977 38952 ft 445 kts 105°
2026-05-01 09:03 13.27811 10.90110 38953 ft 446 kts 105°
2026-05-01 09:04 13.26186 10.96204 38951 ft 445 kts 105°
2026-05-01 09:04 13.24550 11.02327 38953 ft 443 kts 105°
2026-05-01 09:05 13.22920 11.08419 38950 ft 442 kts 105°
2026-05-01 09:05 13.21290 11.14510 38953 ft 443 kts 105°
2026-05-01 09:06 13.19658 11.20601 38953 ft 443 kts 105°
2026-05-01 09:06 13.18024 11.26691 38957 ft 443 kts 105°
2026-05-01 09:07 13.16390 11.32780 38947 ft 443 kts 105°
2026-05-01 09:07 13.14748 11.38886 38950 ft 444 kts 105°
2026-05-01 09:08 13.13105 11.44993 38951 ft 444 kts 105°
2026-05-01 09:08 13.11461 11.51094 38952 ft 444 kts 105°
2026-05-01 09:09 13.09816 11.57197 38949 ft 444 kts 105°
2026-05-01 09:09 13.08170 11.63296 38950 ft 444 kts 105°
2026-05-01 09:10 13.06523 11.69394 38949 ft 444 kts 105°
2026-05-01 09:10 13.04871 11.75503 38953 ft 445 kts 105°
2026-05-01 09:11 13.03218 11.81610 38951 ft 445 kts 105°
2026-05-01 09:11 13.01562 11.87719 38949 ft 445 kts 105°
2026-05-01 09:12 12.99906 11.93826 38949 ft 445 kts 105°
2026-05-01 09:12 12.98246 11.99941 38948 ft 445 kts 105°
2026-05-01 09:13 12.96599 12.06002 38949 ft 445 kts 105°
2026-05-01 09:13 12.94935 12.12119 38951 ft 446 kts 105°
2026-05-01 09:14 12.93268 12.18242 38947 ft 446 kts 105°
2026-05-01 09:14 12.91600 12.24361 38945 ft 446 kts 105°
2026-05-01 09:15 12.89931 12.30479 38940 ft 446 kts 105°
2026-05-01 09:15 12.88260 12.36595 38938 ft 446 kts 105°
2026-05-01 09:16 12.86588 12.42712 38939 ft 446 kts 105°
2026-05-01 09:17 12.84073 12.51902 38933 ft 447 kts 105°
2026-05-01 09:17 12.81553 12.61096 38936 ft 447 kts 105°
2026-05-01 09:18 12.79027 12.70296 38932 ft 447 kts 105°
2026-05-01 09:19 12.77341 12.76429 38817 ft 448 kts 105°
2026-05-01 09:19 12.76498 12.79495 38602 ft 446 kts 105°
2026-05-01 09:19 12.75657 12.82552 38338 ft 446 kts 105°
2026-05-01 09:20 12.73971 12.88676 37817 ft 448 kts 105°
2026-05-01 09:20 12.72292 12.94766 36476 ft 451 kts 105°
2026-05-01 09:21 12.70563 13.01030 34799 ft 459 kts 105°
2026-05-01 09:21 12.69695 13.04173 34198 ft 458 kts 105°
2026-05-01 09:21 12.67963 13.10441 32668 ft 459 kts 105°
2026-05-01 09:22 12.66225 13.16729 31292 ft 456 kts 105°
2026-05-01 09:22 12.64513 13.22914 30275 ft 447 kts 105°
2026-05-01 09:23 12.63667 13.25966 29664 ft 444 kts 105°
2026-05-01 09:23 12.62012 13.31938 28455 ft 427 kts 105°
2026-05-01 09:24 12.60425 13.37657 27462 ft 418 kts 105°
2026-05-01 09:24 12.59622 13.40552 26912 ft 425 kts 105°
2026-05-01 09:24 12.58006 13.46407 25783 ft 428 kts 105°
2026-05-01 09:25 12.56411 13.52235 24794 ft 422 kts 105°
2026-05-01 09:25 12.54832 13.58001 23771 ft 420 kts 105°
2026-05-01 09:26 12.54044 13.60876 23197 ft 419 kts 105°
2026-05-01 09:26 12.52479 13.66587 22126 ft 414 kts 105°
2026-05-01 09:26 12.51704 13.69413 21638 ft 410 kts 104°
2026-05-01 09:27 12.50175 13.74982 20676 ft 403 kts 104°
2026-05-01 09:27 12.49429 13.77695 20220 ft 400 kts 104°
2026-05-01 09:27 12.48679 13.80422 19752 ft 396 kts 104°
2026-05-01 09:28 12.47935 13.83128 19308 ft 393 kts 104°
2026-05-01 09:28 12.47196 13.85814 18860 ft 390 kts 103°
2026-05-01 09:28 12.46463 13.88476 18417 ft 388 kts 103°
2026-05-01 09:28 12.45735 13.91120 17948 ft 385 kts 103°
2026-05-01 09:29 12.44298 13.96334 17052 ft 377 kts 103°
2026-05-01 09:29 12.43590 13.98902 16632 ft 373 kts 103°
2026-05-01 09:30 12.42197 14.03952 15812 ft 365 kts 103°
2026-05-01 09:30 12.41511 14.06439 15411 ft 362 kts 103°
2026-05-01 09:30 12.40156 14.11346 14621 ft 356 kts 103°
2026-05-01 09:31 12.39487 14.13769 14231 ft 353 kts 103°
2026-05-01 09:31 12.38822 14.16173 13835 ft 350 kts 103°
2026-05-01 09:31 12.37505 14.20934 12992 ft 345 kts 103°
2026-05-01 09:32 12.36856 14.23281 12600 ft 342 kts 103°
2026-05-01 09:32 12.35575 14.27908 11844 ft 335 kts 103°
2026-05-01 09:32 12.34943 14.30188 11473 ft 332 kts 103°
2026-05-01 09:33 12.34322 14.32430 11284 ft 323 kts 103°
2026-05-01 09:33 12.33719 14.34603 11138 ft 313 kts 103°
2026-05-01 09:33 12.32566 14.38763 10854 ft 295 kts 103°
2026-05-01 09:34 12.32015 14.40750 10715 ft 287 kts 104°
2026-05-01 09:34 12.31478 14.42684 10582 ft 278 kts 104°
2026-05-01 09:34 12.30458 14.46359 10320 ft 263 kts 104°
2026-05-01 09:35 12.29858 14.48123 10104 ft 259 kts 117°
2026-05-01 09:35 12.27802 14.51129 9536 ft 257 kts 123°
2026-05-01 09:35 12.26762 14.52608 9234 ft 255 kts 123°
2026-05-01 09:36 12.25744 14.54058 8958 ft 254 kts 123°
2026-05-01 09:36 12.24718 14.55517 8674 ft 252 kts 123°
2026-05-01 09:36 12.23699 14.56967 8398 ft 250 kts 123°
2026-05-01 09:36 12.22688 14.58404 8121 ft 248 kts 123°
2026-05-01 09:37 12.21684 14.59831 7857 ft 246 kts 123°
2026-05-01 09:37 12.19697 14.62656 7321 ft 243 kts 123°
2026-05-01 09:37 12.18712 14.64056 7055 ft 242 kts 123°
2026-05-01 09:38 12.16758 14.66831 6524 ft 239 kts 123°
2026-05-01 09:38 12.15789 14.68207 6260 ft 238 kts 123°
2026-05-01 09:38 12.14826 14.69574 5983 ft 237 kts 123°
2026-05-01 09:39 12.12918 14.72282 5449 ft 233 kts 123°
2026-05-01 09:39 12.11978 14.73617 5196 ft 231 kts 123°
2026-05-01 09:39 12.11045 14.74942 4942 ft 229 kts 123°
2026-05-01 09:40 12.10118 14.76257 4687 ft 227 kts 123°
2026-05-01 09:40 12.08300 14.78835 4252 ft 216 kts 123°
2026-05-01 09:40 12.07443 14.80050 4112 ft 206 kts 123°
2026-05-01 09:41 12.06597 14.81251 4016 ft 214 kts 123°
2026-05-01 09:41 12.04690 14.83711 3576 ft 224 kts 134°
2026-05-01 09:41 12.03519 14.84740 3576 ft 219 kts 136°
2026-05-01 09:42 12.02356 14.85722 3576 ft 216 kts 137°
2026-05-01 09:42 12.01221 14.86720 3570 ft 213 kts 127°
2026-05-01 09:42 12.00744 14.89478 3619 ft 208 kts 71°
2026-05-01 09:43 12.02426 14.91904 3638 ft 209 kts 50°
2026-05-01 09:43 12.03423 14.92945 3350 ft 206 kts 50°
2026-05-01 09:43 12.04393 14.93957 3097 ft 189 kts 50°
2026-05-01 09:44 12.06033 14.95686 2661 ft 157 kts 49°
2026-05-01 09:44 12.06783 14.96477 2463 ft 155 kts 48°
2026-05-01 09:44 12.07534 14.97267 2279 ft 155 kts 47°
2026-05-01 09:45 12.08285 14.98059 2056 ft 155 kts 46°
2026-05-01 09:45 12.09733 14.99580 1700 ft 143 kts 47°
2026-05-01 09:45 12.10431 15.00315 1571 ft 144 kts 47°
2026-05-01 09:46 12.11131 15.01051 1411 ft 145 kts 49°
2026-05-01 09:46 12.11835 15.01790 1203 ft 144 kts 48°
2026-05-01 09:46 12.12538 15.02512 1032 ft 144 kts 51°
2026-05-01 09:46 12.13146 15.03164 981 ft 97 kts 45°
2026-05-01 09:47 12.13504 15.03532 982 ft 56 kts 45°
2026-05-01 09:47 12.13613 15.03678 986 ft 7 kts 97°
2026-05-01 09:47 12.13607 15.03696 980 ft 1 kts 122°
2026-05-01 09:47 12.13603 15.03696 980 ft 0 kts 174°
2026-05-01 09:48 12.13599 15.03692 989 ft 1 kts 218°
2026-05-01 09:48 12.13593 15.03679 990 ft 5 kts 249°
2026-05-01 09:48 12.13557 15.03611 982 ft 18 kts 233°
2026-05-01 09:48 12.13469 15.03510 988 ft 17 kts 224°
2026-05-01 09:49 12.13393 15.03433 987 ft 12 kts 224°
2026-05-01 09:49 12.13316 15.03409 982 ft 13 kts 152°
2026-05-01 09:49 12.13294 15.03426 978 ft 0 kts 138°
2026-05-01 09:49 12.13286 15.03435 978 ft 3 kts 134°
2026-05-01 09:50 12.13262 15.03461 981 ft 7 kts 134°
2026-05-01 09:50 12.13214 15.03486 979 ft 9 kts 179°
2026-05-01 09:50 12.13162 15.03444 988 ft 11 kts 225°
2026-05-01 09:50 12.13119 15.03401 977 ft 6 kts 224°
2026-05-01 09:51 12.13103 15.03386 980 ft 3 kts 218°
2026-05-01 09:51 12.13078 15.03383 980 ft 5 kts 162°
2026-05-01 09:51 12.13056 15.03398 980 ft 3 kts 137°
2026-05-01 09:51 12.13056 15.03399 979 ft 0 kts 137°